Regional Weather Roundup
Issued by NWS Charleston, WV

Home | Current Version | Previous Version | Graphics & Text | Print | Product List | Glossary On
Versions: 1 2 3 4 5 6 7 8 9 10 11 12 13 14 15 16 17 18 19 20 21 22 23 24 25 26 27 28 29 30 31 32 33 34 35 36 37 38 39 40 41 42 43 44 45 46 47 48 49 50
000
ASUS41 KRLX 030910
RWRRLX
West Virginia Regional Weather Roundup
National Weather Service Charleston WV
500 AM EDT FRI JUL 03 2015

Note: "fair" indicates few or no clouds below 12,000 feet with no
significant weather and/or obstructions to visibility.

WVZ003-031000-
Northern Panhandle of West Virginia

CITY           SKY/WX    TMP DP  RH WIND       PRES   REMARKS
WHEELING       CLEAR     56  54  93 NE7       29.96F
$$

WVZ009-031000-
Northwest West Virginia

CITY           SKY/WX    TMP DP  RH WIND       PRES   REMARKS
PARKERSBURG    CLOUDY    64  62  93 NE3       29.95S
$$

WVZ006-031000-
Western West Virginia

CITY           SKY/WX    TMP DP  RH WIND       PRES   REMARKS
HUNTINGTON     CLOUDY    66  65  96 E5        29.87F FOG
$$

WVZ015-031000-
West Central West Virginia

CITY           SKY/WX    TMP DP  RH WIND       PRES   REMARKS
CHARLESTON     CLOUDY    65  63  93 CALM      29.89F FOG
$$

WVZ022-031-031000-
North Central West Virginia

CITY           SKY/WX    TMP DP  RH WIND       PRES   REMARKS
CLARKSBURG     CLOUDY    59  58  96 NE6       29.95F FOG
MORGANTOWN     MOCLDY    59  54  83 CALM      29.97S HAZE
$$

WVZ025-035-042-045-031000-
Southern West Virginia

CITY           SKY/WX    TMP DP  RH WIND       PRES   REMARKS
BECKLEY        CLOUDY    64  61  90 SE6       29.97S
LOGAN          FOG       66  66 100 CALM      29.88S VSB 1/4
BLUEFIELD      LGT RAIN  65  62  90 CALM      29.99S VSB 1/2
LEWISBURG      CLOUDY    64  62  93 NE3       29.98S FOG
$$

WVZ047-031000-
Northern Mountains of West Virginia

CITY           SKY/WX    TMP DP  RH WIND       PRES   REMARKS
ELKINS         CLOUDY    59  57  93 CALM      30.00S FOG
$$

WVZ052-031000-
Eastern Panhandle of West Virginia

CITY           SKY/WX    TMP DP  RH WIND       PRES   REMARKS
MARTINSBURG    FOG       63  62  97 CALM      29.95S VSB<1/4
PETERSBURG     CLOUDY    57  55  92 CALM      29.98S FOG
$$


USA.gov is the U.S. government's official web portal to all federal, state and local government web resources and services.